Time,TemperatureF,DewpointF,PressureIn,WindDirection,WindDirectionDegrees,WindSpeedMPH,WindSpeedGustMPH,Humidity,HourlyPrecipIn,Conditions,Clouds,dailyrainin,SoftwareType,DateUTC
2013-02-03 00:01:00,39.0,38.0,30.26,SE,139,0.0,3.0,96,-99.99,,,-99.99,,2013-02-03 08:01:00,
2013-02-03 00:11:00,39.0,38.0,30.26,SE,139,0.0,3.0,96,-99.99,,,-99.99,,2013-02-03 08:11:00,
2013-02-03 00:22:00,39.0,38.0,30.27,SSE,149,0.0,3.0,96,-99.99,,,-99.99,,2013-02-03 08:22:00,
2013-02-03 00:32:00,39.0,38.0,30.26,SSE,163,1.0,3.0,96,-99.99,,,-99.99,,2013-02-03 08:32:00,
2013-02-03 00:42:00,39.0,38.0,30.26,SSE,163,1.0,3.0,96,-99.99,,,-99.99,,2013-02-03 08:42:00,
2013-02-03 00:52:00,39.0,38.0,30.26,SSE,163,1.0,3.0,96,-99.99,,,-99.99,,2013-02-03 08:52:00,
2013-02-03 01:02:00,39.0,38.0,30.25,SE,144,0.0,3.0,96,-99.99,,,-99.99,,2013-02-03 09:02:00,
2013-02-03 01:11:00,39.0,38.0,30.25,SE,144,0.0,3.0,96,-99.99,,,-99.99,,2013-02-03 09:11:00,
2013-02-03 01:21:00,39.0,38.0,30.27,South,169,0.0,5.0,96,-99.99,,,-99.99,,2013-02-03 09:21:00,
2013-02-03 01:31:00,39.0,38.0,30.27,South,169,0.0,3.0,96,-99.99,,,-99.99,,2013-02-03 09:31:00,
2013-02-03 01:41:00,39.0,38.0,30.27,South,169,0.0,3.0,96,-99.99,,,-99.99,,2013-02-03 09:41:00,
2013-02-03 01:52:00,39.0,38.0,30.27,ESE,111,0.0,2.0,96,-99.99,,,-99.99,,2013-02-03 09:52:00,
2013-02-03 02:01:00,38.0,37.0,30.25,SSE,167,3.0,4.0,96,-99.99,,,-99.99,,2013-02-03 10:01:00,
2013-02-03 02:11:00,38.0,37.0,30.25,SSE,167,3.0,4.0,96,-99.99,,,-99.99,,2013-02-03 10:11:00,
2013-02-03 02:21:00,38.0,37.0,30.25,SE,129,0.0,5.0,96,-99.99,,,-99.99,,2013-02-03 10:21:00,
2013-02-03 02:31:00,38.0,37.0,30.24,SE,129,0.0,1.0,96,-99.99,,,-99.99,,2013-02-03 10:31:00,
2013-02-03 02:41:00,38.0,37.0,30.24,SE,129,0.0,1.0,96,-99.99,,,-99.99,,2013-02-03 10:41:00,
2013-02-03 02:52:00,39.0,38.0,30.24,SE,129,0.0,1.0,97,-99.99,,,-99.99,,2013-02-03 10:52:00,
2013-02-03 03:02:00,39.0,38.0,30.24,SE,132,0.0,1.0,97,-99.99,,,-99.99,,2013-02-03 11:02:00,
2013-02-03 03:11:00,39.0,38.0,30.24,SE,132,0.0,1.0,97,-99.99,,,-99.99,,2013-02-03 11:11:00,
2013-02-03 03:22:00,39.0,38.0,30.24,SE,132,0.0,1.0,97,-99.99,,,-99.99,,2013-02-03 11:22:00,
2013-02-03 03:31:00,40.0,39.0,30.24,SSE,158,1.0,6.0,97,-99.99,,,-99.99,,2013-02-03 11:31:00,
2013-02-03 03:41:00,40.0,39.0,30.24,SSE,158,1.0,6.0,97,-99.99,,,-99.99,,2013-02-03 11:41:00,
2013-02-03 03:52:00,40.0,39.0,30.24,SSE,153,1.0,6.0,97,-99.99,,,-99.99,,2013-02-03 11:52:00,
2013-02-03 04:02:00,40.0,39.0,30.23,SSE,152,2.0,6.0,97,-99.99,,,-99.99,,2013-02-03 12:02:00,
2013-02-03 04:11:00,40.0,39.0,30.23,SSE,152,2.0,6.0,97,-99.99,,,-99.99,,2013-02-03 12:11:00,
2013-02-03 04:21:00,40.0,39.0,30.23,SSE,152,2.0,6.0,97,-99.99,,,-99.99,,2013-02-03 12:21:00,
2013-02-03 04:32:00,40.0,39.0,30.24,SSE,150,0.0,1.0,97,-99.99,,,-99.99,,2013-02-03 12:32:00,
2013-02-03 04:42:00,40.0,39.0,30.24,SSE,150,0.0,1.0,97,-99.99,,,-99.99,,2013-02-03 12:42:00,
2013-02-03 04:53:00,40.0,39.0,30.25,SSE,166,1.0,3.0,97,-99.99,,,-99.99,,2013-02-03 12:53:00,
2013-02-03 05:03:00,41.0,40.0,30.25,SE,138,0.0,3.0,97,-99.99,,,-99.99,,2013-02-03 13:03:00,
2013-02-03 05:11:00,41.0,40.0,30.25,SE,138,0.0,3.0,97,-99.99,,,-99.99,,2013-02-03 13:11:00,
2013-02-03 05:21:00,41.0,40.0,30.25,SE,138,0.0,1.0,97,-99.99,,,-99.99,,2013-02-03 13:21:00,
2013-02-03 05:31:00,41.0,40.0,30.25,SSE,149,1.0,3.0,97,-99.99,,,-99.99,,2013-02-03 13:31:00,
2013-02-03 05:41:00,41.0,40.0,30.25,SSE,149,1.0,3.0,97,-99.99,,,-99.99,,2013-02-03 13:41:00,
2013-02-03 05:52:00,42.0,41.0,30.25,SSE,165,2.0,6.0,97,-99.99,,,-99.99,,2013-02-03 13:52:00,
2013-02-03 06:02:00,42.0,41.0,30.24,SSE,165,1.0,6.0,97,-99.99,,,-99.99,,2013-02-03 14:02:00,
2013-02-03 06:11:00,42.0,41.0,30.24,SSE,165,1.0,6.0,97,-99.99,,,-99.99,,2013-02-03 14:11:00,
2013-02-03 06:21:00,42.0,41.0,30.24,SSE,155,1.0,4.0,97,-99.99,,,-99.99,,2013-02-03 14:21:00,
2013-02-03 06:31:00,42.0,41.0,30.24,SE,140,0.0,2.0,97,-99.99,,,-99.99,,2013-02-03 14:31:00,
2013-02-03 06:42:00,42.0,41.0,30.24,SE,140,0.0,2.0,97,-99.99,,,-99.99,,2013-02-03 14:42:00,
2013-02-03 06:52:00,42.0,41.0,30.26,SE,140,0.0,1.0,97,-99.99,,,-99.99,,2013-02-03 14:52:00,
2013-02-03 07:02:00,42.0,41.0,30.25,SE,140,0.0,2.0,97,-99.99,,,-99.99,,2013-02-03 15:02:00,
2013-02-03 07:11:00,42.0,41.0,30.25,SE,140,0.0,2.0,97,-99.99,,,-99.99,,2013-02-03 15:11:00,
2013-02-03 07:21:00,42.0,41.0,30.25,SE,140,0.0,1.0,97,-99.99,,,-99.99,,2013-02-03 15:21:00,
2013-02-03 07:32:00,42.0,41.0,30.25,SSE,166,0.0,5.0,97,-99.99,,,-99.99,,2013-02-03 15:32:00,
2013-02-03 07:41:00,42.0,41.0,30.25,SSE,166,0.0,5.0,97,-99.99,,,-99.99,,2013-02-03 15:41:00,
2013-02-03 07:51:00,42.0,41.0,30.26,SE,143,1.0,6.0,97,-99.99,,,-99.99,,2013-02-03 15:51:00,
2013-02-03 08:02:00,42.0,41.0,30.26,SE,143,1.0,6.0,97,-99.99,,,-99.99,,2013-02-03 16:02:00,
2013-02-03 08:11:00,42.0,41.0,30.26,SE,143,1.0,6.0,97,-99.99,,,-99.99,,2013-02-03 16:11:00,
2013-02-03 08:21:00,42.0,41.0,30.26,SSE,158,4.0,10.0,97,-99.99,,,-99.99,,2013-02-03 16:21:00,
2013-02-03 08:33:00,41.0,40.0,30.26,SSE,160,0.0,5.0,97,-99.99,,,-99.99,,2013-02-03 16:33:00,
2013-02-03 08:42:00,41.0,40.0,30.26,SSE,160,0.0,5.0,97,-99.99,,,-99.99,,2013-02-03 16:42:00,
2013-02-03 08:52:00,42.0,41.0,30.26,SE,128,1.0,5.0,97,-99.99,,,-99.99,,2013-02-03 16:52:00,
2013-02-03 09:01:00,42.0,41.0,30.26,SE,145,2.0,4.0,97,-99.99,,,-99.99,,2013-02-03 17:01:00,
2013-02-03 09:11:00,42.0,41.0,30.26,SE,145,2.0,4.0,97,-99.99,,,-99.99,,2013-02-03 17:11:00,
2013-02-03 09:21:00,42.0,41.0,30.27,SE,142,2.0,5.0,97,-99.99,,,-99.99,,2013-02-03 17:21:00,
2013-02-03 09:31:00,42.0,41.0,30.27,SSE,149,0.0,5.0,97,-99.99,,,-99.99,,2013-02-03 17:31:00,
2013-02-03 09:42:00,42.0,41.0,30.27,SSE,149,0.0,5.0,97,-99.99,,,-99.99,,2013-02-03 17:42:00,
2013-02-03 09:52:00,42.0,41.0,30.27,SSE,147,2.0,7.0,97,-99.99,,,-99.99,,2013-02-03 17:52:00,
2013-02-03 10:01:00,42.0,41.0,30.27,SSE,147,2.0,7.0,97,-99.99,,,-99.99,,2013-02-03 18:01:00,
2013-02-03 10:11:00,42.0,41.0,30.27,SSE,147,2.0,7.0,97,-99.99,,,-99.99,,2013-02-03 18:11:00,
2013-02-03 10:22:00,43.0,42.0,30.26,SSE,164,3.0,8.0,97,-99.99,,,-99.99,,2013-02-03 18:22:00,
2013-02-03 10:31:00,43.0,42.0,30.26,South,178,0.0,10.0,97,-99.99,,,-99.99,,2013-02-03 18:31:00,
2013-02-03 10:41:00,43.0,42.0,30.26,South,178,0.0,10.0,97,-99.99,,,-99.99,,2013-02-03 18:41:00,
2013-02-03 10:51:00,44.0,43.0,30.26,SSE,157,5.0,11.0,95,-99.99,,,-99.99,,2013-02-03 18:51:00,
2013-02-03 11:02:00,44.0,42.0,30.27,SSE,148,1.0,7.0,93,-99.99,,,-99.99,,2013-02-03 19:02:00,
2013-02-03 11:11:00,44.0,42.0,30.27,SSE,148,1.0,7.0,93,-99.99,,,-99.99,,2013-02-03 19:11:00,
2013-02-03 11:21:00,44.0,42.0,30.27,SE,133,2.0,7.0,91,-99.99,,,-99.99,,2013-02-03 19:21:00,
2013-02-03 11:31:00,44.0,42.0,30.27,SSE,162,0.0,6.0,91,-99.99,,,-99.99,,2013-02-03 19:31:00,
2013-02-03 11:41:00,44.0,42.0,30.27,SSE,162,0.0,6.0,91,-99.99,,,-99.99,,2013-02-03 19:41:00,
2013-02-03 11:52:00,44.0,41.0,30.27,SE,141,3.0,6.0,90,-99.99,,,-99.99,,2013-02-03 19:52:00,
2013-02-03 12:01:00,44.0,41.0,30.27,SSE,147,4.0,7.0,89,-99.99,,,-99.99,,2013-02-03 20:01:00,
2013-02-03 12:11:00,44.0,41.0,30.27,SSE,147,4.0,7.0,89,-99.99,,,-99.99,,2013-02-03 20:11:00,
2013-02-03 12:21:00,45.0,41.0,30.26,SSE,155,4.0,7.0,86,-99.99,,,-99.99,,2013-02-03 20:21:00,
2013-02-03 12:31:00,45.0,41.0,30.26,SSE,155,4.0,7.0,86,-99.99,,,-99.99,,2013-02-03 20:31:00,
2013-02-03 12:42:00,45.0,41.0,30.26,SSE,155,4.0,7.0,86,-99.99,,,-99.99,,2013-02-03 20:42:00,
2013-02-03 12:52:00,45.0,41.0,30.26,SSE,155,4.0,7.0,86,-99.99,,,-99.99,,2013-02-03 20:52:00,
2013-02-03 13:02:00,46.0,41.0,30.26,SSE,163,1.0,9.0,83,-99.99,,,-99.99,,2013-02-03 21:02:00,
2013-02-03 13:11:00,46.0,41.0,30.26,SSE,163,1.0,9.0,83,-99.99,,,-99.99,,2013-02-03 21:11:00,
2013-02-03 13:21:00,46.0,41.0,30.26,SSE,153,0.0,7.0,83,-99.99,,,-99.99,,2013-02-03 21:21:00,
2013-02-03 13:32:00,46.0,41.0,30.26,SE,134,1.0,6.0,83,-99.99,,,-99.99,,2013-02-03 21:32:00,
2013-02-03 13:42:00,46.0,41.0,30.26,SE,134,1.0,6.0,83,-99.99,,,-99.99,,2013-02-03 21:42:00,
2013-02-03 13:52:00,46.0,41.0,30.24,SE,145,3.0,5.0,83,-99.99,,,-99.99,,2013-02-03 21:52:00,
2013-02-03 14:01:00,46.0,41.0,30.24,SE,143,1.0,6.0,83,-99.99,,,-99.99,,2013-02-03 22:01:00,
2013-02-03 14:11:00,46.0,41.0,30.24,SE,143,1.0,6.0,83,-99.99,,,-99.99,,2013-02-03 22:11:00,
2013-02-03 14:21:00,46.0,41.0,30.24,SE,141,2.0,7.0,82,-99.99,,,-99.99,,2013-02-03 22:21:00,
2013-02-03 14:31:00,47.0,42.0,30.23,SSE,149,1.0,7.0,83,-99.99,,,-99.99,,2013-02-03 22:31:00,
2013-02-03 14:41:00,47.0,42.0,30.23,SSE,149,1.0,7.0,83,-99.99,,,-99.99,,2013-02-03 22:41:00,
2013-02-03 14:51:00,46.0,41.0,30.23,SSE,166,1.0,11.0,82,-99.99,,,-99.99,,2013-02-03 22:51:00,
2013-02-03 15:01:00,46.0,41.0,30.23,SE,142,2.0,6.0,83,-99.99,,,-99.99,,2013-02-03 23:01:00,
2013-02-03 15:11:00,46.0,41.0,30.23,SE,142,2.0,6.0,83,-99.99,,,-99.99,,2013-02-03 23:11:00,
2013-02-03 15:21:00,46.0,41.0,30.22,SSE,147,2.0,7.0,83,-99.99,,,-99.99,,2013-02-03 23:21:00,
2013-02-03 15:32:00,46.0,41.0,30.22,SSE,162,2.0,9.0,83,-99.99,,,-99.99,,2013-02-03 23:32:00,
2013-02-03 15:41:00,46.0,41.0,30.22,SSE,162,2.0,9.0,83,-99.99,,,-99.99,,2013-02-03 23:41:00,
2013-02-03 15:51:00,46.0,41.0,30.23,SSE,159,3.0,6.0,83,-99.99,,,-99.99,,2013-02-03 23:51:00,
2013-02-03 15:52:00,46.0,41.0,30.23,SSE,165,4.0,10.0,83,-99.99,,,-99.99,,2013-02-03 23:52:00,
2013-02-03 16:01:00,46.0,41.0,30.23,SE,135,1.0,7.0,83,-99.99,,,-99.99,,2013-02-04 00:01:00,
2013-02-03 16:11:00,46.0,41.0,30.23,SE,135,1.0,7.0,83,-99.99,,,-99.99,,2013-02-04 00:11:00,
2013-02-03 16:21:00,46.0,41.0,30.23,SSE,159,3.0,6.0,83,-99.99,,,-99.99,,2013-02-04 00:21:00,
2013-02-03 16:31:00,46.0,41.0,30.23,SSE,159,3.0,6.0,83,-99.99,,,-99.99,,2013-02-04 00:31:00,
2013-02-03 16:41:00,46.0,41.0,30.23,SSE,159,3.0,6.0,83,-99.99,,,-99.99,,2013-02-04 00:41:00,
2013-02-03 17:21:00,46.0,41.0,30.22,SSE,168,2.0,6.0,84,-99.99,,,-99.99,,2013-02-04 01:21:00,
2013-02-03 17:31:00,46.0,41.0,30.22,SSE,156,3.0,7.0,84,-99.99,,,-99.99,,2013-02-04 01:31:00,
2013-02-03 17:41:00,46.0,41.0,30.22,SSE,156,3.0,7.0,84,-99.99,,,-99.99,,2013-02-04 01:41:00,
2013-02-03 17:51:00,46.0,42.0,30.22,SSE,168,2.0,7.0,85,-99.99,,,-99.99,,2013-02-04 01:51:00,
2013-02-03 18:01:00,46.0,42.0,30.22,SE,146,1.0,5.0,86,-99.99,,,-99.99,,2013-02-04 02:01:00,
2013-02-03 18:11:00,46.0,42.0,30.22,SE,146,1.0,5.0,86,-99.99,,,-99.99,,2013-02-04 02:11:00,
2013-02-03 18:21:00,45.0,41.0,30.22,SSE,156,2.0,7.0,87,-99.99,,,-99.99,,2013-02-04 02:21:00,
2013-02-03 18:31:00,45.0,42.0,30.21,SSE,153,3.0,9.0,89,-99.99,,,-99.99,,2013-02-04 02:31:00,
2013-02-03 18:41:00,45.0,42.0,30.21,SSE,153,3.0,9.0,89,-99.99,,,-99.99,,2013-02-04 02:41:00,
2013-02-03 18:52:00,45.0,43.0,30.21,SSE,153,2.0,7.0,91,-99.99,,,-99.99,,2013-02-04 02:52:00,
2013-02-03 19:01:00,44.0,42.0,30.21,SSE,160,2.0,7.0,92,-99.99,,,-99.99,,2013-02-04 03:01:00,
2013-02-03 19:11:00,44.0,42.0,30.21,SE,144,2.0,6.0,93,-99.99,,,-99.99,,2013-02-04 03:11:00,
2013-02-03 19:21:00,44.0,42.0,30.21,SE,144,2.0,6.0,93,-99.99,,,-99.99,,2013-02-04 03:21:00,
2013-02-03 19:31:00,44.0,42.0,30.21,SE,144,2.0,6.0,93,-99.99,,,-99.99,,2013-02-04 03:31:00,
2013-02-03 19:41:00,44.0,42.0,30.21,SE,144,2.0,6.0,93,-99.99,,,-99.99,,2013-02-04 03:41:00,
2013-02-03 19:51:00,44.0,42.0,30.21,SSE,162,2.0,5.0,94,-99.99,,,-99.99,,2013-02-04 03:51:00,
2013-02-03 20:01:00,44.0,42.0,30.21,SE,137,1.0,6.0,94,-99.99,,,-99.99,,2013-02-04 04:01:00,
2013-02-03 20:11:00,44.0,42.0,30.21,SE,137,1.0,6.0,94,-99.99,,,-99.99,,2013-02-04 04:11:00,
2013-02-03 20:21:00,44.0,43.0,30.19,SE,128,1.0,7.0,95,-99.99,,,-99.99,,2013-02-04 04:21:00,
2013-02-03 20:31:00,44.0,43.0,30.19,SSE,159,1.0,7.0,95,-99.99,,,-99.99,,2013-02-04 04:31:00,
2013-02-03 20:41:00,44.0,43.0,30.19,SSE,159,1.0,7.0,95,-99.99,,,-99.99,,2013-02-04 04:41:00,
2013-02-03 20:52:00,44.0,43.0,30.19,SSE,157,1.0,6.0,95,-99.99,,,-99.99,,2013-02-04 04:52:00,
2013-02-03 21:03:00,44.0,43.0,30.19,SE,126,0.0,5.0,95,-99.99,,,-99.99,,2013-02-04 05:03:00,
2013-02-03 21:11:00,44.0,43.0,30.19,SE,126,0.0,5.0,95,-99.99,,,-99.99,,2013-02-04 05:11:00,
2013-02-03 21:22:00,44.0,43.0,30.19,SW,223,0.0,4.0,96,-99.99,,,-99.99,,2013-02-04 05:22:00,
2013-02-03 21:33:00,44.0,43.0,30.19,SW,223,0.0,2.0,96,-99.99,,,-99.99,,2013-02-04 05:33:00,
2013-02-03 21:41:00,44.0,43.0,30.19,SW,223,0.0,2.0,96,-99.99,,,-99.99,,2013-02-04 05:41:00,
2013-02-03 21:52:00,44.0,43.0,30.19,SW,223,1.0,3.0,96,-99.99,,,-99.99,,2013-02-04 05:52:00,
2013-02-03 22:01:00,44.0,43.0,30.20,SW,230,1.0,5.0,96,-99.99,,,-99.99,,2013-02-04 06:01:00,
2013-02-03 22:11:00,44.0,43.0,30.20,SW,230,1.0,5.0,96,-99.99,,,-99.99,,2013-02-04 06:11:00,
2013-02-03 22:21:00,44.0,43.0,30.20,SSW,202,0.0,2.0,95,-99.99,,,-99.99,,2013-02-04 06:21:00,
2013-02-03 22:31:00,44.0,43.0,30.19,South,181,1.0,5.0,95,-99.99,,,-99.99,,2013-02-04 06:31:00,
2013-02-03 22:41:00,44.0,43.0,30.19,South,181,1.0,5.0,95,-99.99,,,-99.99,,2013-02-04 06:41:00,
2013-02-03 22:52:00,44.0,43.0,30.19,SSE,155,2.0,5.0,95,-99.99,,,-99.99,,2013-02-04 06:52:00,
2013-02-03 23:01:00,44.0,43.0,30.19,SSE,157,1.0,3.0,95,-99.99,,,-99.99,,2013-02-04 07:01:00,
2013-02-03 23:11:00,44.0,43.0,30.19,SSE,157,1.0,3.0,95,-99.99,,,-99.99,,2013-02-04 07:11:00,
2013-02-03 23:21:00,44.0,43.0,30.19,SSE,157,1.0,3.0,95,-99.99,,,-99.99,,2013-02-04 07:21:00,
2013-02-03 23:31:00,44.0,42.0,30.19,SW,229,0.0,5.0,94,-99.99,,,-99.99,,2013-02-04 07:31:00,
2013-02-03 23:41:00,44.0,42.0,30.19,SW,229,0.0,5.0,94,-99.99,,,-99.99,,2013-02-04 07:41:00,
2013-02-03 23:52:00,44.0,42.0,30.19,South,173,0.0,4.0,94,-99.99,,,-99.99,,2013-02-04 07:52:00,